Simultaneous Nadir Overpasses (SNOs) Predictions

Prediction of SNOs between GOES-16 and METOP-B Satellite Orbit:

Table of predicted SNOs for the next 14.0 days since TLE Epoch: 8/3/2024
Index Date Time (GOES-16) GOES-16 Lat,Lon METOP-B Lat,Lon Distance(km) Time Diff (sec)
1 08/04/2024 02:35:13 0.01, -75.20 -0.79, -78.93 424.86 80
2 08/05/2024 02:17:16 0.01, -75.21 0.32, -73.95 143.29 80
3 08/06/2024 14:33:30 -0.02, -75.22 0.72, -78.54 377.58 80
4 08/07/2024 14:15:33 -0.02, -75.23 -0.40, -73.56 191.15 80
5 08/09/2024 02:31:56 0.03, -75.25 -0.61, -78.18 333.98 80
6 08/10/2024 02:13:59 0.02, -75.26 0.51, -73.20 235.21 80
7 08/11/2024 14:30:13 -0.02, -75.29 0.52, -77.79 284.29 80
8 08/12/2024 14:12:14 -0.02, -75.30 -0.55, -72.80 285.08 80
9 08/14/2024 02:28:38 0.02, -75.32 -0.44, -77.43 239.39 80
10 08/15/2024 02:10:39 0.02, -75.34 0.64, -72.44 330.01 80
11 08/16/2024 14:29:33 -0.02, -75.37 0.37, -77.02 189.27 80
